Regional Weather Roundup
Issued by NWS

Home | Current Version | Previous Version | Text Only | Print | Product List | Glossary On
Versions: 1 2 3 4 5 6 7 8 9 10 11 12 13 14 15 16 17 18 19 20 21 22 23 24 25 26 27 28 29 30 31 32 33 34 35 36 37 38 39 40 41 42 43 44 45 46 47 48 49 50
000
ASUS43 KTOP 222208
RWRKS

WEATHER ROUNDUP FOR KANSAS
NATIONAL WEATHER SERVICE GOODLAND KS
400 PM CST MON DEC 22 2014

NOTE:  "FAIR" INDICATES FEW OR NO CLOUDS BELOW 12,000 FEET WITH NO
SIGNIFICANT WEATHER AND/OR OBSTRUCTIONS TO VISIBILITY.

KSZ001>006-013>018-027>032-041>047-222300-
NORTHWEST KANSAS

CITY           SKY/WX    TMP DP  RH WIND       PRES   REMARKS
GOODLAND       MOSUNNY   43  23  45 NW21      29.64R
HAYS           MOSUNNY   52  25  35 NW18G25   29.56R
HILL CITY      MOSUNNY   51  22  31 NW20G29   29.56R
RUSSELL        SUNNY     52  26  36 NW21G28   29.53R
$$

KSZ061>065-074>080-084>089-222300-
SOUTHWEST KANSAS

CITY           SKY/WX    TMP DP  RH WIND       PRES   REMARKS
DODGE CITY     SUNNY     52  17  25 NW25G32   29.60S
ELKHART          N/A     47  22  37 NW7         N/A
GARDEN CITY    SUNNY     50  18  28 N21       29.61R
GREAT BEND     SUNNY     52  28  40 NW17G26   29.56R
LIBERAL        MOSUNNY   50  25  37 N9        29.66R
PRATT          SUNNY     52  28  40 NW16G26   29.58R
$$

KSZ066>073-081>083-090>101-222300-
SOUTHEAST KANSAS

CITY           SKY/WX    TMP DP  RH WIND       PRES   REMARKS
CHANUTE        CLOUDY    49  44  83 W13G24    29.51R
COFFEYVILLE    CLOUDY    51  46  83 W10       29.52R
HUTCHINSON     MOSUNNY   54  33  45 NW13      29.54R
MEDICINE LODGE   N/A     54  31  41 NW15G24   29.57R
NEWTON         PTSUNNY   52  34  50 NW13      29.55S
PARSONS        PTSUNNY   51  47  86 W8        29.52R
WICHITA INTL   PTSUNNY   53  35  50 NW10      29.55R
WICHITA JABRA  MOSUNNY   51  35  54 NW13      29.55R
WICHITA MCCONL MOSUNNY   51  36  55 N12       29.55R
WINFIELD       MOSUNNY   51  40  65 NW12      29.58R
$$

KSZ007>012-019>026-033>040-048>060-102>105-222300-
NORTHEAST KANSAS

CITY           SKY/WX    TMP DP  RH WIND       PRES   REMARKS
CONCORDIA      PTSUNNY   49  34  56 NW16      29.49R
EMPORIA        CLOUDY    47  39  74 W14       29.50R
LAWRENCE       CLOUDY    46  41  82 W14       29.47R
MANHATTAN      CLOUDY    48  41  76 W3        29.49R
MARYSVILLE     CLOUDY    43  39  87 NW6       29.46R
OLATHE IND     CLOUDY    48  45  89 W9        29.45R
OLATHE EXE     CLOUDY    47  45  93 W9        29.44R
SALINA         PTSUNNY   53  33  46 NW13      29.51R
TOPEKA BILLARD LGT RAIN  48  43  82 W10       29.48R
TOPEKA FORBES  CLOUDY    47  42  83 W10       29.48R
$$


USA.gov is the U.S. government's official web portal to all federal, state and local government web resources and services.